Wind_Speed
65 56 54 55 57 59 57 56 51 53 51 39 45 47 59 47 49 50 56 60 60 62 72 82 94 103 113 114 113 116 116 113 107 105 102 100 95 90 78 76 76 74 57 61
66 56 56 60 63 63 57 58 55 50 50 47 45 50 53 47 41 48 52 57 60 61 67 76 84 95 108 114 109 110 111 109 109 105 103 97 93 98 85 78 69 81 80 64
72 64 61 62 62 65 66 61 58 47 46 49 49 51 50 43 47 49 48 52 56 59 61 69 77 87 98 113 112 109 107 107 105 105 102 98 101 101 86 81 84 90 96 74
71 70 65 63 65 66 67 59 52 45 45 48 48 42 42 42 43 44 46 48 51 54 57 64 75 84 92 106 115 110 108 107 104 101 101 98 105 105 94 84 91 89 93 94
73 68 64 65 60 68 73 64 50 43 43 45 42 36 32 36 38 40 44 47 46 47 51 58 71 81 89 97 108 112 108 101 100 101 100 100 100 104 100 91 93 77 76 89
73 70 63 63 65 73 72 60 52 41 34 33 31 30 28 29 28 32 37 38 42 44 49 56 65 70 75 86 98 103 105 101 96 97 99 101 100 108 105 96 97 80 72 72
74 70 66 65 68 73 69 57 45 40 32 26 23 22 20 19 17 19 23 29 34 39 45 51 51 57 66 74 81 91 98 94 89 89 97 103 100 104 104 102 100 91 75 78
75 75 71 71 67 67 72 56 46 37 30 24 18 14 11 9 12 17 20 20 24 29 33 37 42 44 52 61 71 81 89 93 86 82 96 102 92 97 99 103 100 94 85 77
76 78 78 78 72 69 72 55 44 34 29 26 18 13 10 7 6 7 8 11 14 16 21 26 30 35 41 51 60 70 82 90 87 87 89 96 91 92 105 94 89 83 79 75
75 77 75 79 83 79 74 58 50 49 42 32 23 18 13 8 6 5 8 10 13 16 22 27 31 35 39 50 58 65 79 94 97 92 88 91 92 89 98 100 90 88 79 74
72 75 74 71 76 84 86 62 55 59 41 29 24 23 16 13 12 13 15 17 19 22 25 28 30 35 39 46 54 61 79 87 98 91 90 95 91 89 88 94 93 90 86 79
67 72 70 68 74 79 83 74 59 66 53 43 36 32 23 20 17 21 22 25 28 33 36 38 40 43 48 48 64 74 86 88 87 83 88 91 90 83 86 89 91 86 73 74
65 66 63 64 69 76 79 77 72 74 65 49 40 33 33 28 23 25 29 35 44 51 60 58 60 59 60 58 67 75 82 87 91 91 93 91 86 87 86 88 83 80 82 82
61 64 61 60 62 69 74 78 74 77 65 54 43 37 33 39 37 38 41 52 60 65 63 69 79 69 69 68 63 76 81 89 88 90 90 92 92 88 92 91 84 72 74 75
57 59 55 52 53 58 66 73 74 74 66 52 43 44 39 39 43 48 53 65 73 80 74 71 73 66 52 63 45 51 79 84 87 90 90 92 91 92 92 87 86 75 70 71
54 56 55 47 46 47 53 61 65 68 65 57 39 40 44 39 41 48 60 74 81 73 66 72 64 66 55 47 53 59 76 86 85 85 84 88 90 92 92 85 85 79 76 71
50 52 52 44 38 41 42 48 54 57 55 51 34 35 46 45 43 43 60 84 78 71 68 63 56 49 61 44 40 54 67 83 84 83 85 87 91 90 85 83 85 84 79 77
46 47 49 50 36 28 32 35 40 45 48 44 31 28 39 50 42 48 53 76 77 79 75 61 61 47 49 47 43 45 61 79 80 80 83 86 91 89 89 88 91 95 87 82
44 42 44 45 40 24 23 26 29 33 34 34 37 33 25 40 42 45 47 55 75 70 68 52 52 54 48 47 53 51 68 77 79 81 83 86 90 90 91 91 90 87 90 90
41 42 40 44 41 24 16 18 21 21 24 25 25 27 27 22 38 47 49 48 55 61 49 37 35 37 33 39 48 56 69 72 77 79 84 86 88 89 91 94 93 91 90 92
40 38 39 40 39 31 12 10 13 17 14 16 18 19 19 18 16 28 46 48 47 47 45 42 38 37 33 33 30 37 50 68 77 80 84 83 88 91 93 93 92 91 92 87
38 34 37 37 36 34 20 10 8 7 10 11 9 10 12 14 12 10 11 14 18 17 17 17 23 28 30 35 37 43 47 54 57 65 76 83 88 85 86 92 91 91 92 97
39 32 33 34 34 34 27 15 8 5 4 5 6 6 7 5 3 3 3 3 7 11 15 20 20 26 42 46 50 58 60 64 69 74 77 81 85 85 88 90 88 92 95 99
42 31 32 32 35 32 28 24 17 12 10 8 8 6 4 2 2 1 2 5 9 11 12 13 16 19 23 28 35 43 54 66 69 72 74 76 80 84 87 92 95 97 100 103
48 33 28 29 32 34 28 26 23 22 20 16 6 10 11 10 10 10 10 11 11 12 13 15 17 21 24 28 30 34 37 41 45 49 54 60 64 70 78 86 91 92 91 93
46 38 27 27 28 31 33 31 26 24 22 20 17 13 9 10 12 15 18 19 20 21 22 22 23 25 27 29 31 34 37 40 43 47 51 55 60 64 68 73 77 82 86 92
Wind_Direction
336 331 329 329 329 325 322 316 309 305 296 278 269 268 269 270 262 255 250 246 240 231 229 225 222 221 223 225 225 227 226 224 225 222 220 217 209 207 203 203 208 212 230 234
339 333 332 331 331 327 323 318 313 304 297 285 274 266 270 268 267 258 250 246 243 236 227 226 222 220 220 223 224 225 226 225 223 224 222 220 205 206 205 205 211 208 221 235
342 339 336 333 332 331 324 319 312 302 293 282 275 276 274 264 256 259 253 246 242 238 230 226 223 219 218 221 222 221 223 222 222 222 222 217 208 206 207 207 211 216 219 227
343 341 337 339 335 331 326 324 318 304 294 289 285 282 273 264 257 257 254 247 244 241 232 226 224 222 217 218 219 219 220 219 217 219 218 217 207 207 205 207 210 217 222 226
348 343 341 340 336 338 334 334 323 313 304 297 293 283 271 264 257 254 249 248 243 237 235 229 224 222 218 215 219 218 218 219 216 216 214 213 209 207 207 207 209 215 218 222
345 347 346 346 347 345 336 335 333 326 313 302 293 286 276 271 267 253 250 247 243 238 233 228 224 223 220 218 217 216 218 216 216 212 213 210 208 207 208 207 209 216 219 225
347 348 352 353 352 350 346 348 342 336 329 318 311 300 292 286 278 266 253 241 236 231 229 228 224 219 215 216 214 214 215 215 214 212 211 209 211 207 210 209 213 217 220 230
348 352 354 353 356 356 356 356 350 346 340 334 330 312 289 262 242 236 240 242 235 230 230 230 224 218 215 211 208 207 206 211 212 212 211 211 213 209 207 210 214 217 221 232
352 354 355 356 356 5 3 2 360 2 2 360 352 344 328 302 267 226 219 208 206 213 215 215 213 205 205 200 198 197 198 201 209 210 211 211 211 209 211 210 215 220 223 232
356 354 359 356 359 5 12 9 16 17 14 14 13 18 20 34 53 89 113 139 150 168 184 187 188 186 186 187 188 189 189 193 202 207 209 210 212 208 212 213 216 220 224 232
358 357 359 358 2 8 11 12 29 28 25 31 40 41 41 59 80 104 117 125 137 148 151 155 158 165 169 175 176 180 185 189 199 204 206 206 210 209 212 215 218 223 225 231
360 358 358 2 4 11 13 17 28 29 30 28 34 44 53 67 85 96 104 116 123 124 127 133 139 141 143 153 162 170 180 189 196 201 205 207 208 209 210 212 216 219 226 228
3 3 357 5 9 12 13 19 23 28 28 36 46 53 65 68 79 100 112 116 121 122 119 120 114 125 124 151 158 170 177 190 195 200 203 204 207 209 210 213 216 219 227 226
4 5 1 5 14 12 15 19 26 28 22 32 41 61 74 86 85 99 110 113 114 113 114 127 126 131 143 147 158 176 185 193 193 198 200 203 204 209 211 215 213 221 229 232
5 8 4 2 15 16 17 21 22 30 25 26 41 59 68 78 91 103 111 116 118 113 119 132 137 137 120 159 156 180 193 191 194 198 200 203 207 210 212 215 215 223 230 233
5 10 9 1 10 21 23 26 23 29 26 21 51 60 74 82 93 108 118 119 120 107 110 140 140 140 136 156 178 186 194 193 197 199 202 206 209 212 213 215 220 223 226 234
6 12 11 6 3 19 19 34 30 29 31 27 45 69 85 84 101 114 127 123 120 118 113 121 136 158 153 161 177 189 199 195 199 200 204 209 212 215 215 220 223 228 231 233
7 14 13 10 2 6 17 36 43 37 36 39 38 64 95 96 102 119 133 137 136 129 127 142 154 156 169 180 190 188 201 198 198 205 209 213 216 219 220 222 227 231 229 236
4 13 16 12 10 358 14 27 48 53 46 45 51 48 104 113 116 125 139 151 150 142 141 147 161 167 172 183 194 200 202 203 204 210 214 217 221 225 226 228 232 235 238 241
358 10 19 15 14 2 9 21 35 52 58 56 60 63 70 111 129 137 142 146 154 152 154 155 155 162 172 195 200 208 206 207 211 216 218 222 226 228 231 233 236 240 242 245
355 7 15 21 15 8 339 15 19 35 50 54 52 66 76 82 110 150 153 155 165 172 175 180 185 188 192 200 207 212 217 219 220 222 224 228 231 232 233 236 238 241 245 251
354 8 13 20 19 13 2 338 360 18 28 47 51 52 57 75 87 106 145 179 186 186 201 214 220 217 224 229 227 230 232 232 232 235 232 235 236 238 243 243 245 249 250 255
353 4 10 19 21 20 18 5 340 327 334 355 15 36 55 66 78 74 106 163 202 214 224 235 242 239 234 236 233 231 233 235 236 237 237 239 241 245 248 249 253 255 261 265
355 358 9 18 24 22 23 32 28 354 338 308 282 292 314 326 331 331 223 227 234 236 238 244 248 251 251 248 246 246 247 247 248 249 253 255 257 259 261 262 264 265 267 267
358 354 8 14 21 23 23 25 29 31 31 24 328 271 273 273 273 269 265 261 257 255 252 249 249 248 248 251 252 254 255 256 257 259 261 262 264 264 264 265 267 271 272 272
358 359 4 12 16 21 21 22 21 23 26 23 23 18 349 302 284 278 274 272 273 270 269 266 264 264 264 265 265 265 265 265 266 266 266 266 266 267 268 269 271 273 274 277
Height
10430 10416 10403 10388 10375 10361 10350 10335 10325 10306 10295 10293 10282 10276 10264 10273 10270 10274 10273 10276 10284 10293 10302 10317 10330 10349 10370 10388 10410 10430 10454 10480 10503 10526 10556 10578 10599 10613 10625 10625 10636 10643 10656 10654
10423 10407 10392 10377 10364 10346 10334 10321 10307 10292 10280 10271 10265 10255 10254 10257 10260 10252 10254 10259 10265 10274 10282 10294 10310 10329 10348 10365 10392 10413 10435 10462 10483 10506 10532 10559 10580 10594 10605 10613 10620 10626 10628 10632
10409 10393 10379 10366 10351 10332 10311 10301 10289 10278 10262 10252 10245 10241 10239 10242 10236 10234 10239 10242 10248 10258 10268 10279 10291 10305 10325 10343 10368 10391 10416 10439 10466 10487 10511 10538 10563 10576 10585 10594 10601 10603 10606 10615
10401 10381 10366 10353 10334 10319 10301 10283 10269 10257 10244 10234 10227 10229 10223 10222 10221 10221 10222 10225 10233 10241 10253 10261 10270 10283 10302 10321 10340 10370 10388 10414 10444 10469 10494 10516 10541 10554 10566 10578 10583 10588 10594 10600
10394 10378 10360 10344 10330 10307 10281 10265 10252 10240 10228 10217 10211 10211 10209 10207 10208 10208 10207 10210 10217 10225 10234 10243 10250 10260 10279 10298 10319 10344 10370 10402 10428 10451 10475 10497 10520 10540 10551 10561 10573 10580 10587 10594
10390 10373 10358 10337 10317 10295 10271 10252 10237 10225 10214 10203 10197 10194 10194 10194 10196 10195 10195 10201 10206 10212 10218 10226 10235 10251 10269 10286 10302 10336 10361 10384 10413 10438 10463 10484 10505 10519 10535 10553 10561 10568 10577 10581
10385 10369 10351 10334 10318 10291 10263 10243 10227 10214 10203 10194 10188 10186 10185 10185 10186 10186 10188 10191 10195 10200 10205 10214 10226 10240 10255 10271 10296 10322 10352 10382 10408 10431 10454 10470 10487 10506 10527 10541 10552 10560 10566 10568
10379 10359 10343 10327 10306 10284 10257 10240 10223 10209 10197 10188 10182 10179 10176 10175 10176 10177 10181 10184 10189 10195 10203 10212 10222 10236 10250 10265 10282 10306 10338 10372 10400 10423 10443 10457 10479 10501 10514 10524 10535 10547 10555 10556
10375 10355 10335 10318 10303 10286 10260 10239 10223 10209 10196 10187 10182 10177 10174 10173 10173 10174 10177 10181 10184 10192 10201 10211 10222 10232 10245 10261 10280 10303 10332 10370 10394 10416 10433 10452 10470 10488 10499 10515 10526 10538 10545 10547
10374 10358 10344 10323 10298 10282 10259 10239 10222 10208 10198 10190 10184 10180 10176 10174 10173 10173 10175 10177 10182 10188 10197 10206 10217 10230 10244 10261 10281 10305 10333 10367 10375 10407 10427 10448 10466 10481 10492 10503 10517 10527 10531 10535
10378 10363 10348 10337 10315 10290 10265 10249 10231 10220 10210 10197 10189 10183 10180 10177 10172 10172 10174 10178 10185 10192 10202 10212 10223 10236 10253 10268 10290 10314 10338 10367 10376 10404 10420 10439 10454 10467 10485 10501 10512 10516 10522 10528
10385 10365 10353 10341 10317 10299 10279 10259 10242 10229 10218 10206 10194 10189 10188 10181 10179 10182 10181 10188 10196 10202 10211 10219 10228 10246 10262 10281 10296 10319 10339 10365 10381 10401 10418 10434 10447 10464 10471 10485 10497 10507 10511 10513
10389 10375 10360 10348 10327 10307 10295 10275 10255 10237 10231 10223 10212 10206 10201 10196 10195 10197 10196 10200 10203 10208 10222 10229 10246 10261 10275 10290 10314 10334 10351 10364 10380 10393 10407 10429 10443 10453 10467 10476 10487 10495 10493 10497
10395 10379 10364 10353 10340 10320 10307 10289 10273 10257 10247 10238 10232 10224 10217 10211 10214 10216 10213 10217 10221 10228 10237 10247 10256 10273 10291 10313 10330 10340 10351 10356 10378 10390 10407 10422 10434 10444 10455 10460 10470 10479 10481 10484
10402 10386 10372 10361 10355 10337 10324 10310 10293 10277 10269 10261 10252 10244 10240 10236 10233 10233 10233 10239 10241 10247 10255 10268 10282 10298 10316 10327 10332 10343 10350 10366 10376 10389 10403 10417 10427 10436 10443 10458 10465 10470 10471 10474
10407 10394 10380 10368 10363 10354 10342 10332 10314 10301 10290 10282 10273 10267 10262 10258 10258 10257 10257 10260 10264 10271 10274 10284 10297 10311 10323 10332 10340 10345 10354 10366 10381 10395 10409 10416 10424 10429 10437 10452 10454 10456 10461 10463
10411 10399 10389 10379 10370 10361 10355 10348 10338 10324 10315 10304 10297 10291 10286 10281 10283 10280 10280 10280 10284 10290 10293 10303 10315 10320 10328 10335 10342 10351 10358 10371 10383 10395 10403 10411 10419 10427 10438 10444 10447 10449 10449 10451
10418 10406 10395 10384 10375 10374 10367 10360 10355 10347 10336 10330 10321 10314 10309 10306 10302 10303 10302 10300 10300 10299 10308 10315 10323 10332 10336 10342 10348 10357 10365 10376 10388 10396 10404 10410 10413 10420 10425 10430 10430 10426 10437 10439
10421 10411 10402 10393 10385 10377 10374 10370 10365 10361 10357 10351 10345 10340 10331 10325 10323 10321 10320 10321 10319 10321 10324 10330 10336 10340 10347 10352 10357 10363 10371 10378 10389 10394 10399 10404 10408 10414 10420 10421 10424 10431 10424 10420
10423 10413 10405 10397 10389 10381 10378 10375 10373 10371 10369 10366 10362 10359 10356 10352 10341 10341 10341 10344 10345 10343 10343 10344 10350 10355 10359 10363 10368 10371 10376 10383 10387 10390 10394 10399 10403 10408 10411 10410 10412 10416 10418 10413
10426 10416 10408 10400 10395 10387 10379 10378 10377 10375 10376 10373 10371 10370 10368 10367 10366 10364 10357 10355 10360 10360 10361 10361 10362 10363 10366 10370 10374 10379 10383 10386 10388 10390 10392 10395 10395 10397 10398 10399 10399 10401 10401 10402
10429 10420 10412 10404 10398 10391 10384 10380 10379 10379 10377 10377 10376 10375 10374 10374 10375 10375 10376 10376 10376 10373 10374 10375 10376 10377 10379 10379 10379 10380 10383 10384 10386 10387 10389 10390 10389 10393 10395 10392 10393 10391 10386 10379
10430 10422 10415 10408 10402 10396 10389 10384 10380 10379 10379 10378 10378 10378 10378 10377 10378 10379 10379 10379 10378 10378 10378 10379 10379 10380 10381 10381 10382 10382 10383 10384 10385 10384 10383 10382 10383 10382 10382 10381 10378 10372 10367 10361
10433 10424 10417 10411 10405 10400 10395 10390 10386 10383 10381 10380 10379 10379 10379 10378 10378 10378 10379 10379 10379 10378 10378 10378 10378 10378 10379 10379 10380 10381 10382 10383 10383 10382 10382 10382 10380 10378 10375 10371 10366 10362 10358 10352
10437 10427 10419 10413 10408 10404 10399 10395 10391 10387 10384 10382 10381 10380 10379 10379 10379 10378 10378 10377 10377 10377 10377 10376 10376 10375 10375 10374 10374 10373 10373 10372 10371 10371 10370 10368 10365 10362 10358 10352 10346 10340 10335 10328
10438 10431 10422 10415 10410 10405 10401 10397 10393 10391 10388 10385 10383 10381 10379 10379 10378 10377 10377 10376 10376 10375 10374 10373 10373 10371 10370 10369 10368 10367 10365 10364 10362 10360 10357 10353 10350 10347 10342 10338 10333 10324 10314 10305